Shelbyville, IN

12:03 AM EST on December 10, 2019 (GMT -0500)
Shelbyville Municipal

Weather History for KGEZ - October, 2019

Change the Weather History Date:

Saturday, October 12, 2019

  Actual Average Record
Temperature  
Mean Temperature 45 °F 55 °F  
Max Temperature 56 °F 67 °F 86 °F (2008)
Min Temperature 34 °F 43 °F 30 °F (2006)
Degree Days  
Heating Degree Days 20 10  
Month to date heating degree days 51 104  
Since 1 July heating degree days 54 189  
Cooling Degree Days 0 0  
Month to date cooling degree days 36 11  
Year to date cooling degree days 1330 910  
Moisture  
Dew Point 31 °F    
Average Humidity 64    
Maximum Humidity 96    
Minimum Humidity 32    
Precipitation  
Precipitation 0.00 in 0.09 in 0.42 in (2004)
Month to date precipitation 0.80 1.27  
Year to date precipitation 33.01 34.72  
Sea Level Pressure  
Sea Level Pressure 30.11 in    
Wind  
Wind Speed 8 mph (SW)    
Max Wind Speed 16 mph    
Max Gust Speed 25 mph    
Visibility 10 miles    
Events      
T = Trace of Precipitation, MM = Missing Value Source: NWS Daily Summary

Daily Weather History Graph

Daily Weather History Graph

Search for Another Location

Airport or City:

Astronomy

Oct. 12, 2019 Rise Set
Actual Time 7:49 AM EDT 7:08 PM EDT
Civil Twilight 7:22 AM EDT 7:35 PM EDT
Nautical Twilight 6:51 AM EDT 8:06 PM EDT
Astronomical Twilight 6:20 AM EDT 8:38 PM EDT
Moon 7:03 PM EDT (10/12) 6:27 AM EDT (10/12)
Length of Visible Light 12h 12m
Length of Day
11h 18m
Waxing Gibbous, 99% of the Moon is Illuminated
Oct 12
Waxing Gibbous
Oct 13
Full
Oct 21
Last Quarter
Oct 27
New
Nov 4
First Quarter

Hourly Weather History & Observations

Time (EDT) Temp. Windchill Dew Point Humidity Pressure Visibility Wind Dir Wind Speed Gust Speed Precip Events Conditions
12:53 AM 44.1 °F 38.6 °F 37.0 °F 76% 30.10 in 10.0 mi WNW 10.4 mph 23.0 mph N/A   Overcast
1:32 AM 42.1 °F 36.6 °F 34.0 °F 73% 30.10 in 10.0 mi WNW 9.2 mph - N/A   Scattered Clouds
1:53 AM 41.0 °F 36.4 °F 34.0 °F 76% 30.11 in 10.0 mi WNW 6.9 mph - N/A   Clear
2:53 AM 39.9 °F 35.1 °F 33.1 °F 77% 30.12 in 10.0 mi WNW 6.9 mph - N/A   Clear
3:53 AM 37.9 °F 34.4 °F 33.1 °F 83% 30.12 in 10.0 mi WSW 4.6 mph - N/A   Clear
4:53 AM 37.0 °F 33.3 °F 33.1 °F 86% 30.12 in 10.0 mi SW 4.6 mph - N/A   Clear
5:53 AM 35.1 °F 31.0 °F 32.0 °F 89% 30.13 in 10.0 mi SW 4.6 mph - N/A   Clear
6:53 AM 35.1 °F 31.0 °F 32.0 °F 89% 30.16 in 10.0 mi SW 4.6 mph - N/A   Clear
7:53 AM 34.0 °F 29.8 °F 32.0 °F 92% 30.17 in 10.0 mi SSW 4.6 mph - N/A   Clear
8:53 AM 37.0 °F 32.4 °F 34.0 °F 89% 30.18 in 10.0 mi SW 5.8 mph - N/A   Clear
9:53 AM 42.1 °F 37.1 °F 34.0 °F 73% 30.19 in 10.0 mi WSW 8.1 mph - N/A   Clear
10:53 AM 45.0 °F 39.7 °F 27.0 °F 49% 30.18 in 10.0 mi West 10.4 mph - N/A   Clear
12:53 PM 48.9 °F - 27.0 °F 43% 30.17 in 10.0 mi WSW 10.4 mph 19.6 mph N/A   Clear
1:53 PM 52.0 °F - 26.1 °F 37% 30.15 in 10.0 mi WSW 13.8 mph 20.7 mph N/A   Clear
2:53 PM 53.1 °F - 27.0 °F 37% 30.12 in 10.0 mi SW 8.1 mph 19.6 mph N/A   Clear
3:53 PM 55.9 °F - 28.0 °F 34% 30.09 in 10.0 mi SW 10.4 mph 16.1 mph N/A   Clear
4:53 PM 55.9 °F - 27.0 °F 33% 30.08 in 10.0 mi SW 13.8 mph - N/A   Clear
5:53 PM 55.0 °F - 28.0 °F 35% 30.07 in 10.0 mi SSW 11.5 mph 19.6 mph N/A   Clear
6:53 PM 51.1 °F - 28.9 °F 43% 30.07 in 10.0 mi South 8.1 mph - N/A   Clear
7:53 PM 48.9 °F - 30.0 °F 48% 30.06 in 10.0 mi South 8.1 mph - N/A   Clear
8:53 PM 45.0 °F 41.2 °F 30.9 °F 58% 30.06 in 10.0 mi South 6.9 mph - N/A   Clear
9:53 PM 44.1 °F 40.1 °F 32.0 °F 63% 30.06 in 10.0 mi South 6.9 mph - N/A   Clear
10:53 PM 44.1 °F 39.5 °F 32.0 °F 63% 30.06 in 10.0 mi South 8.1 mph - N/A   Clear
11:53 PM 43.0 °F 38.2 °F 32.0 °F 65% 30.05 in 10.0 mi South 8.1 mph - N/A   Clear